Location: *
(51.1248°S, 108.4023°W)
Time: 04:28:40
(UTC+00:00)

CZ-4 R/B - Pass Details

Date: 15 June 2021
Orbit: 532 x 596 km, 97.8° (Epoch: 31 July)

Event Time Altitude Azimuth Distance (km) Brightness Sun altitude
Rises 12:42:29 0° 48° (NE) 2,851 5.9 -22.8°
Reaches altitude 10° 12:44:55 10° 61° (ENE) 1,953 5.1 -22.4°
Maximum altitude 12:48:26 26° 116° (ESE) 1,210 3.6 -21.9°
Drops below altitude 10° 12:51:57 10° 172° (S) 1,955 4.1 -21.4°
Enters shadow 12:53:16 - 180° (S) 2,430 4.5 -21.2°
